Date,TemperatureHighF,TemperatureAvgF,TemperatureLowF,DewpointHighF,DewpointAvgF,DewpointLowF,HumidityHigh,HumidityAvg,HumidityLow,PressureMaxIn,PressureMinIn,WindSpeedMaxMPH,WindSpeedAvgMPH,GustSpeedMaxMPH,PrecipitationSumIn
2013-1-1,34.2,28.9,24.3,31.5,25.5,21.4,98,88,72,30.28,30.03,19,8,0,0.00
2013-1-2,46.9,30.8,18.5,29.9,25.2,18.0,98,82,46,30.32,30.18,10,4,0,0.00
2013-1-3,45.9,32.4,21.9,28.7,24.9,21.4,98,77,43,30.46,30.32,11,5,0,0.00
2013-1-4,44.6,35.8,26.8,33.1,28.6,22.7,89,76,56,30.45,30.26,12,4,0,0.00
2013-1-5,54.7,41.1,30.7,34.1,29.7,19.3,90,67,26,30.33,30.13,15,7,0,0.00
2013-1-6,56.5,39.7,26.8,32.1,27.8,24.9,94,65,33,30.42,30.28,11,4,0,0.00
2013-1-7,51.1,38.2,25.3,31.6,27.5,22.5,93,67,44,30.27,30.03,11,5,0,0.00
2013-1-8,52.9,42.6,30.6,44.5,37.5,29.5,98,83,63,30.08,29.96,9,5,0,0.00
2013-1-9,46.4,43.6,40.1,45.5,42.0,36.3,98,94,81,30.26,30.01,27,12,0,4.87
2013-1-10,53.4,48.7,46.0,52.9,47.7,44.4,98,96,87,30.01,29.80,19,8,0,0.61
2013-1-11,69.3,53.9,41.5,53.5,47.2,37.9,98,80,57,29.80,29.61,15,7,0,0.00
2013-1-12,48.7,37.7,25.9,37.5,26.4,16.7,84,64,51,30.07,29.79,22,12,0,0.48
2013-1-13,35.8,26.8,21.2,21.9,15.0,11.8,84,62,41,30.31,30.07,19,9,0,0.00
2013-1-14,37.8,27.0,17.8,17.8,14.5,12.3,81,60,38,30.36,30.22,16,7,0,0.00
2013-1-15,37.8,30.0,22.5,19.2,16.9,14.0,84,59,38,30.27,30.18,13,6,0,0.00
2013-1-16,53.2,34.6,17.6,34.9,25.6,15.5,97,73,40,30.24,30.10,10,5,0,0.00
2013-1-17,59.4,43.8,32.9,36.6,33.0,29.4,91,68,41,30.51,30.25,14,5,0,0.00
2013-1-18,62.2,44.6,27.7,37.4,33.5,26.6,98,69,38,30.46,30.13,15,6,0,0.00
2013-1-19,65.1,47.1,33.6,40.3,36.2,31.3,92,68,36,30.20,30.06,8,3,0,0.00
2013-1-20,65.8,46.4,28.9,39.9,33.8,26.6,92,65,33,30.20,30.04,21,5,0,0.34
2013-1-21,47.8,36.1,25.5,32.2,18.9,11.6,69,51,34,30.40,30.20,20,7,0,0.00
2013-1-22,63.7,43.3,25.2,43.3,31.2,19.9,86,64,41,30.24,30.08,12,5,0,0.00
2013-1-23,67.1,50.3,34.5,51.1,43.6,29.3,98,80,46,30.19,30.05,11,4,0,0.10
2013-1-24,49.6,39.2,33.4,47.7,35.2,29.7,98,85,69,30.22,30.06,18,8,0,0.00
2013-1-25,54.3,39.7,27.1,34.4,30.9,25.9,96,73,46,30.21,30.07,10,5,0,0.00
2013-1-26,55.8,41.9,27.5,46.4,35.6,26.3,96,80,58,30.19,29.96,18,5,0,0.00
2013-1-27,77.4,62.5,47.7,59.8,51.8,33.0,98,70,46,29.96,29.73,20,10,0,0.00
2013-1-28,79.7,65.2,49.6,65.1,55.1,48.3,96,72,44,29.88,29.67,19,8,0,0.04
2013-1-29,68.2,56.7,38.8,63.5,45.5,33.3,94,69,35,29.70,29.48,29,12,0,5.36
2013-1-30,50.9,40.7,32.5,33.7,23.2,11.1,81,53,20,30.07,29.71,21,11,0,0.09
2013-1-31,68.4,41.1,26.4,68.1,25.5,14.9,99,56,21,30.33,30.00,25,6,0,0.40
2013-2-1,51.8,35.1,19.0,30.6,22.1,15.0,87,61,39,30.37,30.07,13,6,0,0.00
2013-2-2,65.7,47.8,30.6,39.4,30.8,26.2,86,56,24,30.31,30.08,15,5,0,0.00
2013-2-3,67.6,48.9,28.0,67.3,31.6,19.7,99,57,17,30.31,29.89,20,5,0,0.00
2013-2-4,68.9,56.7,37.6,68.4,36.1,10.1,99,50,10,29.93,29.76,17,7,0,0.00
2013-2-5,70.9,50.7,30.0,53.9,35.3,26.1,92,60,22,30.00,29.88,12,5,0,0.00
2013-2-6,73.8,59.7,50.5,58.9,42.5,-34.0,99,58,2,29.99,29.73,15,8,0,0.00
2013-2-7,61.9,53.7,37.9,57.6,43.0,-30.7,99,71,2,30.19,29.70,28,11,0,3.05
2013-2-8,59.5,44.3,28.9,59.3,29.5,-28.9,99,63,2,30.28,30.06,12,5,0,0.00
2013-2-9,55.0,47.1,40.6,54.8,42.9,3.2,99,87,15,30.05,29.57,23,14,0,0.28
2013-2-10,64.2,51.7,39.2,63.9,34.1,14.8,99,55,15,30.01,29.66,15,8,0,0.00
2013-2-11,57.2,44.6,32.7,30.4,28.0,25.7,75,53,33,30.19,30.00,12,7,0,0.00
2013-2-12,41.9,36.3,32.0,37.8,33.9,29.3,98,92,64,30.08,29.91,21,9,0,2.28
2013-2-13,59.4,41.5,27.3,37.6,32.4,26.8,98,75,38,30.07,29.94,7,3,0,0.00
2013-2-14,64.2,46.1,30.0,42.4,36.3,29.5,98,73,38,30.20,29.95,26,8,0,0.48
2013-2-15,47.3,39.5,31.6,37.8,27.7,22.0,93,64,43,30.42,30.20,14,7,0,0.00
2013-2-16,58.8,40.8,27.7,37.7,30.4,15.9,98,69,36,30.38,30.05,11,5,0,0.00
2013-2-17,73.8,52.0,31.6,73.5,37.2,10.8,99,64,10,30.04,29.67,21,10,0,0.02
2013-2-18,59.7,51.3,38.7,49.0,35.4,25.9,94,57,31,30.12,29.58,27,12,0,1.43
2013-2-19,57.4,43.9,27.3,31.5,27.7,23.4,96,57,27,30.28,30.08,19,7,0,0.00
2013-2-20,48.7,40.1,35.1,41.9,38.5,28.9,98,95,46,30.08,29.70,29,16,0,4.64
2013-2-21,46.0,35.5,26.4,42.7,32.6,21.6,98,90,60,30.00,29.62,22,10,0,0.89
2013-2-22,42.8,31.1,21.0,28.7,23.3,18.4,95,74,55,30.13,29.99,17,6,0,0.00
2013-2-23,33.3,27.1,23.9,32.8,26.5,23.4,98,97,91,30.06,29.99,6,3,0,0.00
2013-2-24,67.3,47.9,32.2,47.9,40.1,31.7,98,78,47,29.78,29.53,24,12,0,3.01
2013-2-25,41.9,36.6,32.5,41.4,34.9,24.7,98,94,71,29.75,29.45,29,17,0,7.69
2013-2-26,49.5,37.7,28.6,37.2,32.6,28.1,98,83,59,29.90,29.75,24,8,0,0.00
2013-2-27,49.6,38.4,28.2,36.7,31.7,27.7,98,79,51,30.25,29.88,27,10,0,0.41
2013-2-28,54.7,39.5,25.7,34.5,29.7,25.2,98,72,33,30.29,30.19,18,6,0,0.00
2013-3-1,33.6,31.4,29.7,32.6,29.8,27.8,98,94,85,30.35,30.19,6,3,0,0.07
2013-3-2,64.9,43.3,26.6,42.2,34.3,26.1,98,75,38,30.39,30.13,10,5,0,0.00
2013-3-3,78.4,56.4,33.1,78.1,41.6,27.8,99,66,17,30.11,29.52,21,9,0,0.05
2013-3-4,76.3,61.2,44.4,47.1,40.2,31.3,78,48,32,30.04,29.48,37,12,0,13.29
2013-3-5,55.6,44.2,32.4,55.3,23.9,-31.9,99,49,2,30.41,30.08,31,11,0,5.76
2013-3-6,54.9,41.4,25.9,30.2,26.0,19.8,89,56,35,30.41,30.09,13,6,0,0.00
2013-3-7,59.4,43.4,39.0,29.8,27.0,25.4,60,53,31,30.09,30.03,17,10,0,0.00
2013-3-8,62.8,57.9,51.4,61.1,56.0,46.0,98,93,73,30.01,29.79,21,12,0,0.04
2013-3-9,70.7,61.6,50.0,65.4,50.3,30.3,98,72,31,29.79,29.58,26,11,0,0.24
2013-3-10,50.2,42.5,30.2,40.6,30.7,22.5,83,64,36,30.09,29.73,30,16,0,2.37
2013-3-11,65.8,43.1,22.5,37.8,28.4,19.2,88,60,29,30.08,29.88,11,6,0,0.00
2013-3-12,60.4,50.0,39.6,42.8,35.8,29.6,84,59,45,30.32,29.91,26,9,0,0.11
2013-3-13,69.8,50.8,32.9,41.7,38.2,32.4,98,67,32,30.41,30.23,12,4,0,0.00
2013-3-14,79.3,59.5,40.1,49.3,43.8,39.1,97,61,31,30.25,30.05,11,6,0,0.00
2013-3-15,86.2,66.9,44.8,48.4,44.2,40.1,88,50,20,30.07,29.70,14,7,0,0.00
2013-3-16,68.2,60.6,53.6,47.7,45.6,44.2,76,59,43,29.70,29.66,12,7,0,0.00
2013-3-17,60.4,49.0,38.8,45.8,40.1,35.0,86,72,56,29.86,29.59,20,9,0,0.07
2013-3-18,65.7,51.9,40.8,45.1,38.3,30.2,98,66,27,29.96,29.57,16,8,0,0.00
2013-3-19,61.0,51.1,39.4,45.2,39.3,30.1,89,64,54,30.17,29.94,21,7,0,0.00
2013-3-20,65.5,51.8,33.6,43.3,34.8,27.7,98,58,25,30.33,29.93,12,6,0,0.00
2013-3-21,82.9,60.9,48.4,55.8,42.9,32.0,84,53,25,29.92,29.36,18,11,0,0.00
2013-3-22,50.2,44.1,39.0,43.9,39.9,38.0,98,86,67,29.88,29.52,24,11,0,0.27
2013-3-23,51.1,44.0,36.1,46.7,42.6,32.7,98,95,84,29.95,29.63,25,9,0,0.20
2013-3-24,48.6,37.5,29.1,32.5,22.2,13.3,87,58,25,30.20,29.95,27,14,0,0.59
2013-3-25,50.4,37.1,23.9,23.5,18.2,13.6,82,50,25,30.39,30.20,20,8,0,0.08
2013-3-26,61.3,43.1,19.8,61.1,20.8,4.1,99,46,10,30.43,30.13,17,7,0,0.00
2013-3-27,77.7,56.8,40.8,46.4,35.7,27.1,62,47,25,30.14,29.92,22,11,0,0.02
2013-3-28,79.3,63.5,48.4,56.8,51.1,44.8,94,66,42,30.06,29.93,17,9,0,0.00
2013-3-29,78.1,64.6,53.6,63.9,58.9,53.0,98,83,54,30.04,29.90,16,9,0,0.00
2013-3-30,86.5,67.9,51.6,63.5,59.1,46.2,98,77,42,29.95,29.82,10,5,0,0.00
2013-3-31,74.5,63.5,52.5,62.9,52.1,45.5,98,70,38,30.05,29.83,29,9,0,10.03
2013-4-1,80.8,58.0,43.7,53.0,47.9,42.5,98,73,36,30.05,29.91,23,7,0,0.30
2013-4-2,43.5,40.0,37.6,43.0,38.8,36.8,98,95,84,30.12,30.02,23,14,0,0.29
2013-4-3,40.8,38.5,37.0,40.3,38.0,36.5,98,98,98,30.20,30.08,15,9,0,0.80
2013-4-4,52.5,41.3,35.8,43.8,39.2,35.3,98,92,72,30.22,30.12,11,6,0,0.17
2013-4-5,67.1,50.3,31.6,51.5,41.7,22.1,98,74,53,30.19,29.85,18,7,0,0.00
2013-4-6,80.8,64.2,50.5,56.1,52.5,50.0,98,70,37,29.84,29.76,13,7,0,0.00
2013-4-7,83.8,66.9,55.8,66.9,60.7,54.2,98,83,52,29.79,29.54,23,10,0,0.06
2013-4-8,87.8,72.1,62.2,68.8,65.4,61.7,98,82,45,29.58,29.44,25,13,0,0.55
2013-4-9,84.4,60.1,32.4,68.7,54.9,30.6,98,84,55,29.90,29.50,32,17,0,19.50
2013-4-10,48.7,36.6,28.2,36.2,31.1,25.6,98,82,50,30.07,29.83,24,9,0,7.41
2013-4-11,63.7,45.1,28.6,42.7,32.5,25.3,95,65,32,29.99,29.71,11,4,0,0.00
2013-4-12,70.9,53.8,40.3,49.8,43.8,39.5,98,72,43,30.00,29.81,12,5,0,0.00
2013-4-13,76.6,62.6,48.2,53.9,47.6,41.2,91,62,29,29.91,29.63,18,10,0,0.05
2013-4-14,92.8,71.0,53.1,92.5,56.9,28.8,99,67,11,29.64,29.39,20,9,0,0.08
2013-4-15,81.7,66.7,56.1,58.1,48.4,39.1,78,53,39,29.70,29.49,25,11,0,4.76
2013-4-16,60.4,53.4,49.1,52.9,48.3,44.1,98,84,68,29.92,29.67,22,10,0,0.65
2013-4-17,78.6,59.0,45.7,74.4,58.3,45.1,98,97,84,29.81,29.48,22,7,0,1.03
2013-4-18,53.8,44.6,36.1,44.1,34.0,28.1,98,69,40,30.16,29.68,26,17,0,19.35
2013-4-19,70.9,50.3,28.6,70.6,36.3,13.1,99,66,12,30.24,30.01,14,5,0,0.00
2013-4-20,73.6,58.4,41.5,38.7,34.4,30.0,79,45,21,30.05,29.84,23,12,0,4.91
2013-4-21,74.1,61.2,47.8,55.1,48.4,38.3,92,64,46,30.08,29.96,16,10,0,0.02
2013-4-22,85.3,66.7,50.9,62.6,57.5,50.4,98,76,42,30.02,29.62,22,12,0,1.56
2013-4-23,68.2,41.0,36.1,61.9,36.8,28.7,98,85,73,30.27,29.72,28,15,0,18.79
2013-4-24,65.1,46.8,27.1,36.5,31.1,26.7,98,61,27,30.33,30.18,13,5,0,0.00
2013-4-25,70.2,59.8,41.4,44.9,37.1,30.2,79,46,23,30.30,30.04,15,6,0,0.00
2013-4-26,83.3,66.9,58.6,66.5,56.2,45.0,98,70,49,30.07,29.81,19,11,0,0.20
2013-4-27,81.1,65.5,54.0,59.0,54.0,46.8,98,72,31,30.14,29.98,21,8,0,0.02
2013-4-28,91.6,70.3,50.2,91.3,58.9,16.5,99,75,7,29.99,29.72,13,5,0,0.00
2013-4-29,94.6,76.6,57.9,94.3,65.7,24.4,99,77,9,29.80,29.62,20,9,0,0.05
2013-4-30,91.2,76.6,61.0,65.2,61.9,55.2,98,65,31,29.70,29.58,21,12,0,0.67
2013-5-1,86.4,67.4,44.4,68.1,59.3,40.5,98,77,49,30.16,29.65,25,13,0,18.35
2013-5-2,55.4,44.8,37.0,41.4,36.8,30.7,98,76,42,30.45,30.16,30,18,0,19.78
2013-5-3,72.3,51.5,29.1,72.0,39.8,20.4,99,72,17,30.41,29.96,20,7,0,0.02
2013-5-4,73.0,56.2,38.5,72.7,43.4,23.1,99,68,18,30.07,29.91,23,9,0,2.07
2013-5-5,75.0,55.6,38.7,51.2,46.0,38.1,98,73,41,30.20,30.03,12,5,0,0.00
2013-5-6,78.8,64.0,45.0,53.6,50.4,44.4,98,66,37,30.11,29.96,9,1,0,0.00
2013-5-7,86.9,72.7,54.7,55.4,51.3,45.4,95,52,24,30.04,29.81,15,7,0,0.00
2013-5-8,88.2,74.8,58.1,67.8,60.3,52.3,86,62,46,29.87,29.71,19,9,0,0.02
2013-5-9,84.2,69.7,60.4,68.4,64.2,59.5,98,85,49,29.92,29.78,13,4,0,0.54
2013-5-10,75.2,65.1,56.8,63.2,57.9,46.8,98,80,55,30.10,29.86,19,7,0,3.09
2013-5-11,84.9,66.3,52.7,60.2,53.2,42.3,98,69,24,30.24,30.10,15,5,0,0.01
2013-5-12,84.4,67.6,46.8,51.1,46.3,34.0,98,52,22,30.27,30.01,15,5,0,0.00
2013-5-13,95.2,78.0,55.8,94.9,58.3,12.5,99,59,5,30.13,29.99,18,7,0,0.20
2013-5-14,93.0,79.8,63.9,61.5,52.7,44.1,63,41,22,30.05,29.82,17,8,0,0.08
2013-5-15,84.2,72.9,65.1,71.4,63.7,54.6,98,75,47,29.89,29.68,13,5,0,0.09
2013-5-16,85.6,71.8,61.2,68.2,65.2,60.6,98,82,50,29.80,29.71,11,7,0,0.00
2013-5-17,91.6,74.8,64.4,78.9,69.4,-24.8,99,87,2,29.82,29.71,14,6,0,0.02
2013-5-18,102.4,80.4,67.6,78.2,68.7,-6.5,98,76,2,29.78,29.54,18,9,0,0.82
2013-5-19,100.6,86.0,72.0,99.9,79.2,18.2,99,85,9,29.65,29.50,24,10,0,1.35
2013-5-20,99.1,81.2,63.1,98.8,61.5,25.5,99,57,8,29.73,29.55,18,5,0,0.00
2013-5-21,81.1,69.8,57.9,69.0,55.4,47.9,98,63,33,29.94,29.71,24,8,0,1.49
2013-5-22,91.0,74.1,53.4,61.1,52.4,-8.9,98,57,2,29.91,29.75,15,5,0,0.02
2013-5-23,90.0,76.1,65.3,72.1,66.4,57.6,98,74,36,30.02,29.83,20,12,0,3.46
2013-5-24,91.6,77.0,65.3,73.5,68.9,63.7,98,79,44,30.10,29.96,23,10,0,0.15
2013-5-25,87.1,74.7,64.4,72.1,67.6,63.8,98,80,51,30.11,29.90,20,8,0,0.07
2013-5-26,94.1,81.5,69.1,73.5,70.0,66.9,98,72,43,29.99,29.77,23,11,0,0.14
2013-5-27,97.2,84.0,73.0,72.1,69.8,67.5,93,65,39,29.84,29.59,22,13,0,5.15
2013-5-28,82.6,78.3,72.7,75.7,70.8,67.9,98,78,66,29.72,29.61,22,9,0,0.35
2013-5-29,87.1,78.2,72.3,74.4,71.1,67.2,98,80,54,29.70,29.46,23,13,0,5.91
2013-5-30,104.0,86.3,74.8,99.9,79.7,55.9,99,84,26,29.65,29.53,18,10,0,0.13
2013-5-31,106.0,89.5,75.2,99.9,72.6,21.1,99,64,5,29.69,29.45,18,10,0,0.02
2013-6-1,91.0,79.0,70.0,90.7,54.8,10.1,99,52,5,30.03,29.56,22,11,0,3.41
2013-6-2,90.9,73.1,58.3,57.7,53.6,46.7,94,55,22,30.13,29.91,12,5,0,0.00
2013-6-3,95.4,78.7,63.3,60.7,58.5,54.2,85,54,29,29.97,29.69,20,11,0,0.02
2013-6-4,99.3,81.9,65.5,74.0,68.2,60.7,98,67,37,29.87,29.68,22,12,0,2.22
2013-6-5,90.0,79.4,69.3,73.7,69.1,63.9,97,73,53,29.95,29.72,22,10,0,0.63
2013-6-6,85.1,70.5,63.9,69.7,64.5,61.9,98,84,48,29.98,29.89,16,9,0,0.65
2013-6-8,92.1,85.1,64.6,66.2,60.6,53.5,98,47,31,29.92,29.66,23,12,0,3.18
2013-6-9,100.6,79.2,61.5,99.9,61.0,-4.4,99,66,2,29.94,29.82,20,4,0,0.44
2013-6-10,103.5,87.6,68.2,99.9,66.7,50.8,99,57,19,29.92,29.80,20,7,0,0.00
2013-6-11,101.8,89.0,73.6,68.0,61.5,56.5,63,42,23,29.94,29.80,18,9,0,0.04
2013-6-12,100.9,89.0,76.3,70.8,67.5,63.6,80,52,30,29.97,29.84,18,9,0,0.00
2013-6-13,101.8,93.4,81.3,71.6,67.4,64.0,66,44,30,30.01,29.84,11,7,0,0.00
2013-6-14,97.9,85.5,73.6,72.3,67.1,60.3,93,57,31,29.96,29.87,13,4,0,0.00
2013-6-15,90.1,82.3,72.3,73.2,68.5,64.4,98,65,45,30.02,29.84,17,7,0,0.02
2013-6-16,100.0,85.8,70.0,76.4,70.6,67.5,98,64,38,29.99,29.81,17,5,0,0.00
2013-6-17,93.4,81.2,68.0,71.9,68.7,35.9,99,69,29,30.00,29.80,20,6,0,3.19
2013-6-18,91.9,80.3,69.1,71.9,68.5,64.6,98,71,42,30.03,29.90,11,5,0,0.00
2013-6-19,87.6,75.4,69.3,74.5,69.2,64.6,98,83,48,30.03,29.77,22,6,0,3.10
2013-6-20,98.1,84.0,69.3,73.8,69.8,66.5,95,66,36,29.94,29.82,21,12,0,0.31
2013-6-21,97.0,86.9,77.2,73.5,69.5,66.1,77,58,38,29.98,29.85,20,10,0,0.02
2013-6-22,97.9,87.6,74.8,70.4,66.7,63.6,73,51,35,29.93,29.76,24,12,0,0.24
2013-6-23,100.0,87.7,77.5,68.8,62.9,55.2,70,47,23,29.86,29.75,23,11,0,0.67
2013-6-24,98.2,87.1,75.9,69.1,65.6,61.0,68,50,32,29.92,29.76,20,12,0,0.54
2013-6-25,102.2,89.5,78.3,74.5,70.2,65.7,71,55,37,29.86,29.68,17,10,0,0.05
2013-6-26,104.9,92.5,78.6,72.0,68.5,64.5,68,47,30,29.86,29.74,16,8,0,0.00
2013-6-27,109.4,93.4,76.6,99.9,69.7,56.0,99,53,19,30.03,29.80,30,6,0,5.13
2013-6-28,105.1,91.4,77.0,67.1,63.0,57.1,68,42,22,30.00,29.88,16,6,0,0.00
2013-6-29,101.8,88.7,77.0,65.7,61.8,57.6,66,43,25,30.00,29.81,11,4,0,0.00
2013-6-30,94.3,83.9,73.6,62.4,57.9,52.7,63,43,25,30.00,29.88,18,8,0,0.00
2013-7-1,88.9,77.1,63.3,58.0,54.2,48.2,78,48,29,30.12,30.00,13,6,0,0.00
2013-7-2,93.0,77.3,57.9,92.7,56.3,9.5,99,55,5,30.15,29.98,13,4,0,0.00
2013-7-3,95.9,80.3,63.0,95.6,50.1,28.3,99,39,10,30.07,29.88,10,2,0,0.00
2013-7-4,97.3,87.2,70.5,61.7,52.9,37.5,60,34,13,29.97,29.81,15,8,0,0.00
2013-7-5,100.8,86.2,69.6,99.9,64.2,32.3,99,55,10,29.93,29.76,17,9,0,0.06
2013-7-6,99.7,87.5,73.8,63.6,59.0,51.0,65,41,21,29.89,29.78,19,9,0,0.00
2013-7-7,100.2,88.2,74.5,65.9,62.9,60.2,70,45,28,29.96,29.87,16,8,0,0.00
2013-7-8,102.7,89.0,74.7,71.3,66.7,63.0,84,51,28,30.02,29.90,12,6,0,0.00
2013-7-9,104.0,92.7,79.7,71.1,66.7,62.4,71,45,27,30.03,29.89,13,8,0,0.00
2013-7-10,105.1,93.6,81.0,66.9,64.4,60.4,57,40,26,30.02,29.86,15,5,0,0.00
2013-7-11,88.2,85.4,83.7,67.1,66.3,64.7,57,53,46,29.93,29.91,6,4,0,0.00
2013-7-17,77.4,76.2,74.8,73.9,72.2,71.0,89,88,87,30.21,30.20,7,2,0,0.00
2013-7-18,91.0,80.9,69.4,74.9,71.2,68.7,98,75,51,30.20,30.00,15,4,0,0.00
2013-7-19,95.0,84.4,70.2,73.7,70.1,66.7,98,65,43,30.05,29.88,12,3,0,0.00
2013-7-20,99.5,86.5,72.0,73.9,69.4,62.2,98,61,32,29.95,29.79,13,4,0,0.00
2013-7-21,100.8,88.9,73.4,73.5,69.2,62.2,98,56,29,29.88,29.77,13,6,0,0.00
2013-7-22,99.1,88.9,76.8,74.6,72.1,69.6,84,59,42,29.89,29.78,14,7,0,0.00
2013-7-23,101.3,90.7,79.5,75.1,73.4,71.7,80,59,40,29.90,29.75,14,6,0,0.00
2013-7-24,99.3,87.2,74.8,77.2,72.9,70.1,98,65,41,29.99,29.81,29,7,0,3.22
2013-7-25,82.9,76.9,71.4,77.7,74.7,70.8,98,93,79,30.09,29.99,15,6,0,0.09
2013-7-26,90.1,83.6,74.8,71.5,70.2,69.4,88,65,51,30.07,29.96,17,8,0,0.00
2013-7-27,93.2,80.8,66.7,74.4,68.5,64.9,98,70,41,30.08,29.88,13,4,0,0.00
2013-7-28,93.2,81.7,68.2,70.8,66.6,58.4,98,65,33,29.96,29.82,14,9,0,0.00
2013-7-29,96.3,86.0,74.7,77.4,73.6,69.7,98,69,50,29.90,29.79,22,11,0,0.09
2013-7-30,100.2,87.7,75.7,81.1,73.0,68.2,97,64,42,30.02,29.86,14,6,0,0.00
2013-7-31,87.4,79.6,75.9,81.2,77.9,75.3,98,95,74,30.09,30.00,11,6,0,0.00
2013-8-1,99.7,87.1,74.3,78.3,73.7,66.5,98,69,35,30.07,29.91,11,5,0,0.00
2013-8-2,107.1,92.9,77.9,80.3,69.9,60.3,98,56,23,29.94,29.76,15,8,0,0.00
2013-8-3,105.4,93.0,77.2,69.7,65.5,57.2,77,43,21,29.95,29.82,14,8,0,0.00
2013-8-4,104.5,91.5,76.6,71.8,67.1,61.7,84,48,26,30.01,29.86,13,6,0,0.14
2013-8-5,107.2,94.4,77.9,73.7,66.6,61.6,86,43,24,29.95,29.74,18,8,0,0.00
2013-8-6,108.3,94.6,76.5,68.7,63.7,58.3,74,39,21,29.83,29.68,14,7,0,0.00
2013-8-7,100.6,88.8,72.5,75.6,69.3,64.8,98,55,35,29.87,29.73,20,6,0,1.73
2013-8-8,101.5,81.4,71.4,76.0,72.4,69.0,98,79,36,29.88,29.73,13,5,0,0.47
2013-8-9,91.6,79.9,69.6,75.1,71.1,69.0,98,77,49,30.06,29.86,24,6,0,0.25
2013-8-10,90.3,79.3,70.2,74.8,70.0,67.7,98,76,50,30.15,30.01,11,5,0,0.00
2013-8-11,99.7,82.5,69.6,76.9,71.4,67.9,98,73,41,30.09,29.93,18,3,0,0.06
2013-8-12,99.1,82.3,73.0,78.1,73.6,67.7,98,79,39,30.09,29.89,18,5,0,0.78
2013-8-13,92.1,79.5,71.8,76.8,73.6,71.2,98,84,54,30.05,29.92,10,4,0,0.00
2013-8-14,77.7,75.0,73.0,75.0,73.4,69.9,98,95,77,30.04,30.00,10,6,0,0.00
2013-8-15,93.7,79.2,70.2,74.9,70.8,64.3,98,77,50,30.04,29.92,14,5,0,0.00
2013-8-16,93.7,77.9,64.6,71.9,68.2,64.0,98,75,44,30.07,29.95,11,4,0,0.19
2013-8-17,90.0,77.7,67.3,69.7,67.8,65.6,98,74,49,30.12,29.98,12,7,0,0.00
2013-8-18,92.8,79.9,68.0,68.2,66.1,63.5,97,66,39,30.09,29.96,14,8,0,0.00
2013-8-19,94.6,81.9,68.7,67.4,65.8,64.4,92,62,39,30.03,29.91,19,8,0,0.00
2013-8-20,99.1,85.1,71.8,68.2,66.5,64.4,88,57,35,30.00,29.90,13,8,0,0.00
2013-8-21,97.5,84.2,68.7,69.6,64.4,59.3,98,56,29,30.06,29.95,11,5,0,0.00
2013-8-22,100.9,87.3,71.4,76.8,68.2,59.1,98,58,26,30.06,29.89,10,4,0,0.00
2013-8-23,103.6,88.2,72.5,78.7,70.3,59.5,98,62,25,30.01,29.87,15,4,0,0.00
2013-8-24,99.5,88.0,73.0,79.3,71.5,65.6,98,63,34,30.06,29.96,17,6,0,0.00
2013-8-25,100.0,87.2,74.5,78.9,72.1,66.0,98,66,34,30.13,30.03,24,7,0,0.10
2013-8-26,96.4,84.8,71.6,75.6,70.1,64.3,98,65,37,30.16,30.03,12,4,0,0.00
2013-8-27,93.7,81.7,69.6,78.9,71.9,66.9,98,75,44,30.09,29.97,18,5,0,0.00
2013-8-28,98.6,86.1,73.0,78.4,70.9,63.9,98,66,36,30.05,29.95,11,5,0,0.00
2013-8-29,101.3,89.2,74.3,69.7,63.9,58.5,84,46,26,30.06,29.93,14,4,0,0.00
2013-8-30,107.2,92.0,74.1,69.0,64.0,59.2,84,44,22,29.99,29.83,15,5,0,0.00
2013-8-31,108.9,93.1,74.5,99.9,64.4,1.8,99,47,2,29.88,29.75,11,4,0,0.00
2013-9-1,103.6,88.4,76.1,72.4,65.6,59.0,71,49,27,29.91,29.78,13,4,0,0.00
2013-9-2,98.1,84.6,73.6,81.4,69.0,57.6,98,65,32,30.03,29.89,11,6,0,0.00
2013-9-3,99.9,82.9,64.2,66.3,59.9,51.8,98,52,22,30.06,29.92,10,4,0,0.00
2013-9-4,101.3,84.0,65.5,99.9,67.2,45.8,99,63,20,30.09,29.97,10,3,0,0.00
2013-9-5,101.3,87.5,73.8,71.6,66.3,59.8,93,54,27,30.10,29.98,11,5,0,0.00
2013-9-6,102.7,88.3,73.6,68.8,65.2,60.3,79,49,27,30.07,29.92,9,4,0,0.00
2013-9-7,103.3,88.4,72.9,71.1,65.8,59.8,90,52,25,30.00,29.86,19,3,0,0.02
2013-9-8,99.9,86.2,72.0,72.6,66.2,56.9,98,57,26,29.96,29.82,14,4,0,0.00
2013-9-9,95.7,85.2,71.8,72.1,66.3,62.1,98,56,35,29.95,29.84,17,7,0,0.00
2013-9-10,93.2,83.3,72.1,74.2,69.6,64.4,98,66,43,30.06,29.92,17,7,0,0.00
2013-9-11,95.0,82.7,72.1,76.2,68.6,61.3,98,66,35,30.12,29.98,14,4,0,0.00
2013-9-12,83.3,77.4,74.8,68.1,64.7,62.2,73,65,60,30.03,30.01,7,1,0,0.00
2013-9-13,86.7,78.3,73.2,78.5,73.9,68.3,98,88,60,30.01,29.89,15,6,0,0.00
2013-9-14,91.0,78.8,72.1,73.7,71.5,68.6,98,80,52,29.98,29.86,11,5,0,0.00
2013-9-15,95.7,83.6,70.5,75.0,67.9,63.8,98,63,38,30.00,29.90,11,6,0,0.00
2013-9-16,93.6,78.2,67.1,76.7,71.1,66.5,99,82,47,30.11,29.97,26,6,0,3.67
2013-9-17,87.6,75.2,68.9,75.9,69.7,30.8,99,85,24,30.10,29.94,15,3,0,0.20
2013-9-18,94.1,85.0,73.9,73.3,67.9,61.7,95,60,35,29.96,29.81,16,7,0,0.00
2013-9-19,87.1,77.1,70.3,74.5,69.0,62.6,98,77,55,30.01,29.81,18,5,0,0.01
2013-9-20,72.5,67.6,57.7,70.1,64.2,57.2,98,90,66,30.03,29.86,18,7,0,0.20
2013-9-21,86.0,68.8,53.8,60.3,54.6,47.6,98,67,27,30.05,29.88,8,2,0,0.00
2013-9-22,86.4,71.5,56.3,57.1,53.9,49.2,93,59,29,29.91,29.75,12,5,0,0.00
2013-9-23,89.1,73.2,56.7,58.5,56.3,54.5,97,59,35,29.82,29.67,19,8,0,0.00
2013-9-24,90.9,76.7,62.4,58.8,52.5,43.8,73,47,20,30.00,29.83,13,5,0,0.00
2013-9-25,94.8,77.7,59.0,62.7,56.3,51.8,80,51,25,29.88,29.67,17,5,0,0.00
2013-9-26,94.3,81.2,68.0,65.7,62.9,58.0,86,57,31,29.79,29.69,19,9,0,0.24
2013-9-27,89.6,79.2,67.1,74.4,67.2,58.3,86,68,52,29.85,29.70,20,11,0,0.00
2013-9-28,78.8,70.1,58.3,76.7,60.0,50.0,98,73,40,30.12,29.76,20,9,0,2.23
2013-9-29,84.9,66.1,45.1,57.9,51.2,6.5,98,66,20,30.11,29.89,8,2,0,0.00
2013-9-30,87.3,68.0,55.2,60.3,55.6,51.1,95,67,38,29.90,29.72,13,6,0,0.00
2013-10-1,90.9,75.2,60.6,69.0,62.5,57.4,98,67,41,29.87,29.76,15,9,0,0.00
2013-10-2,88.9,77.3,66.9,73.9,68.9,63.3,98,77,55,29.89,29.76,17,9,0,0.02
2013-10-3,91.9,80.3,70.5,74.8,70.9,67.4,98,76,47,29.81,29.65,19,11,0,0.18
2013-10-4,91.2,81.0,64.4,71.9,70.0,57.0,98,71,52,29.87,29.66,20,11,0,2.30
2013-10-5,72.0,60.6,52.2,55.1,42.2,36.9,74,53,28,30.14,29.89,19,10,0,2.63
2013-10-6,80.6,61.9,43.9,79.8,39.8,-1.7,99,50,4,30.16,30.02,19,6,0,0.09
2013-10-7,84.4,66.6,49.8,51.9,47.5,43.2,94,55,25,30.16,30.03,8,2,0,0.00
2013-10-8,86.2,68.6,52.3,50.1,45.9,42.8,73,47,23,30.05,29.88,13,7,0,0.00
2013-10-9,83.5,69.2,52.9,55.0,51.9,49.2,92,57,34,29.98,29.86,17,9,0,0.00
2013-10-10,85.5,76.1,64.6,65.3,61.5,55.1,77,61,47,29.93,29.74,20,11,0,0.06
2013-10-11,90.3,75.4,64.2,90.0,61.6,9.0,99,72,6,29.82,29.71,18,6,0,0.02
2013-10-12,78.6,67.3,57.7,56.1,50.5,43.2,73,56,43,30.12,29.82,17,7,0,0.05
2013-10-13,73.8,66.4,56.8,69.6,62.0,51.9,98,86,74,30.24,30.08,18,7,0,0.04
2013-10-14,77.9,71.5,67.6,73.8,69.8,50.7,98,95,53,30.10,29.80,13,7,0,0.20
2013-10-15,71.4,58.9,52.0,70.8,49.3,43.4,98,71,53,30.11,29.85,21,9,0,0.31
2013-10-16,55.9,51.3,43.3,46.2,42.0,40.1,93,71,58,30.18,30.06,13,5,0,0.00
2013-10-17,75.4,56.4,37.2,51.3,44.8,36.7,98,70,31,30.07,29.90,9,1,0,0.00
2013-10-18,59.7,50.4,37.8,55.6,47.4,37.2,98,90,67,30.20,29.88,22,7,0,0.31
2013-10-19,70.0,49.8,32.9,47.0,37.4,26.3,98,68,26,30.20,29.99,12,3,0,0.00
2013-10-20,74.5,67.5,44.6,55.2,50.3,40.2,93,56,47,29.99,29.75,18,7,0,0.00
2013-10-21,67.1,57.4,46.6,54.2,45.8,40.5,98,68,40,30.12,29.81,21,8,0,1.16
2013-10-22,83.7,60.0,41.0,48.7,42.5,38.8,93,59,21,30.13,29.98,13,4,0,0.00
2013-10-23,87.4,65.4,45.0,87.1,49.2,25.5,99,62,11,30.08,29.94,15,3,0,0.00
2013-10-24,68.0,57.9,48.9,52.3,46.2,41.5,90,67,45,30.30,30.04,18,8,0,0.15
2013-10-25,58.3,46.4,41.5,52.5,39.6,37.4,88,77,74,30.37,30.14,11,2,0,0.00
2013-10-26,76.3,61.8,53.4,65.2,56.0,48.0,98,83,48,30.15,29.99,16,7,0,0.17
2013-10-27,73.6,57.6,41.2,55.9,43.2,30.0,98,64,22,30.14,29.92,10,4,0,0.00
2013-10-28,70.9,62.5,53.8,70.1,60.7,14.9,99,95,21,30.00,29.86,21,9,0,0.11
2013-10-29,82.6,73.8,67.5,72.4,69.2,66.9,98,87,65,29.95,29.84,17,8,0,0.00
2013-10-30,81.7,73.6,66.0,72.5,69.9,57.0,98,89,43,29.91,29.68,17,8,0,0.74
2013-10-31,71.2,61.9,53.4,64.9,49.8,42.1,98,68,36,29.82,29.61,24,9,0,3.83
2013-11-1,73.2,57.9,46.4,50.2,44.0,34.9,97,65,27,30.16,29.74,19,7,0,0.02
2013-11-2,68.5,52.9,39.0,39.6,36.6,33.2,85,57,27,30.33,30.13,9,3,0,0.00
2013-11-3,67.8,55.0,41.0,50.2,41.3,37.1,86,62,38,30.13,29.83,19,10,0,0.13
2013-11-4,74.3,60.6,49.8,60.2,53.0,46.3,98,78,52,29.96,29.85,17,7,0,0.06
2013-11-5,74.7,62.9,49.3,68.3,61.4,47.2,98,95,78,30.05,29.79,20,10,0,1.38
2013-11-6,58.5,47.8,39.2,46.7,40.0,37.3,95,76,47,30.36,30.05,17,6,0,0.00
2013-11-7,68.2,50.5,35.2,42.4,37.2,33.5,98,66,29,30.48,30.31,11,3,0,0.00
2013-11-8,68.0,59.3,45.9,45.0,37.1,28.3,76,47,24,30.31,29.98,22,10,0,0.50
2013-11-9,69.3,55.4,44.4,53.6,48.6,43.3,98,80,53,30.17,29.98,11,5,0,0.00
2013-11-10,66.2,56.2,50.2,59.3,54.6,49.6,98,95,78,30.31,30.17,9,3,0,0.00
2013-11-11,70.2,58.7,43.5,61.5,56.0,36.0,98,92,47,30.43,30.11,18,4,0,0.75
2013-11-12,45.3,36.6,24.4,41.2,22.5,16.1,94,59,34,30.78,30.44,22,10,0,1.87
2013-11-13,53.6,36.4,18.9,24.5,17.9,13.1,94,52,21,30.66,30.24,12,4,0,0.00
2013-11-14,54.7,44.6,33.4,46.0,35.1,24.0,92,70,55,30.23,29.88,14,7,0,0.05
2013-11-15,69.4,53.7,34.7,52.3,42.1,34.2,98,68,41,29.90,29.66,14,4,0,0.00
2013-11-16,84.7,71.5,60.3,60.2,54.3,19.9,86,58,14,29.66,29.45,22,10,0,1.73
2013-11-17,75.4,64.1,53.6,57.9,45.5,29.3,96,55,26,30.05,29.54,17,6,0,0.00
2013-11-18,67.1,55.8,44.4,38.1,30.6,25.6,53,39,24,30.23,30.05,9,4,0,0.00
2013-11-19,66.4,58.1,51.4,47.1,42.3,38.2,65,56,47,30.13,29.84,15,8,0,0.00
2013-11-20,77.4,63.7,53.4,62.5,55.0,42.5,98,74,53,29.86,29.70,14,9,0,0.00
2013-11-21,76.6,53.0,31.5,66.2,49.0,25.1,98,87,46,30.40,29.81,25,11,0,12.20
2013-11-22,31.5,29.2,27.5,29.5,25.5,20.2,98,86,72,30.58,30.39,24,13,0,3.86
2013-11-23,37.9,34.1,30.9,28.8,24.6,17.9,81,69,49,30.63,30.51,16,9,0,0.00
2013-11-24,32.7,28.9,26.8,25.4,22.9,20.0,83,78,72,30.63,30.26,12,2,0,0.00
2013-11-25,47.5,32.7,27.7,47.2,26.3,-5.7,99,82,20,30.25,30.12,8,2,0,0.24
2013-11-26,47.1,37.6,28.9,36.4,31.8,25.7,98,80,62,30.41,30.18,13,7,0,0.14
2013-11-27,45.3,33.7,22.6,29.1,25.8,21.9,98,75,50,30.44,30.22,9,2,0,0.00
2013-11-28,58.8,41.1,27.7,39.3,31.9,26.9,98,73,34,30.34,30.20,9,1,0,0.00
2013-11-29,60.4,44.9,30.0,40.2,35.4,28.8,95,72,44,30.38,30.19,14,6,0,0.00
2013-11-30,65.8,49.8,35.2,50.2,44.2,34.7,98,83,57,30.21,30.03,9,2,0,0.00
2013-12-1,65.7,49.8,40.8,49.9,44.6,40.3,98,84,56,30.06,29.87,8,2,0,0.00
2013-12-2,69.3,50.4,34.2,46.8,40.6,33.7,98,74,39,29.86,29.56,6,0,0,0.00
2013-12-3,77.9,54.0,37.0,48.9,41.9,34.4,98,69,21,29.56,29.42,11,3,0,0.00
2013-12-4,49.1,40.8,30.9,39.3,32.6,20.0,93,73,59,30.02,29.43,21,8,0,0.02
2013-12-5,30.7,23.4,18.0,20.5,14.3,9.0,96,69,50,30.26,30.02,20,12,0,0.68
2013-12-6,25.5,17.9,10.8,19.0,13.3,3.6,97,83,65,30.54,30.21,16,8,0,0.02
2013-12-7,18.9,14.2,3.9,13.1,6.0,-1.4,79,69,61,30.58,30.20,13,5,0,0.00
2013-12-8,34.3,23.5,16.3,28.2,20.5,13.2,98,89,78,30.19,29.89,16,5,0,0.00
2013-12-9,25.5,22.2,12.2,23.3,18.2,11.0,96,85,72,30.39,30.09,12,6,0,0.00
2013-12-10,39.0,22.8,7.0,30.1,18.3,5.2,96,84,67,30.40,30.13,12,3,0,0.00
2013-12-11,39.7,30.6,21.4,30.6,25.0,20.4,97,81,66,30.57,30.15,17,6,0,0.02
2013-12-12,39.6,31.7,20.3,36.2,27.6,19.3,97,85,73,30.57,30.15,10,2,0,0.01
2013-12-13,56.1,45.0,37.0,46.6,41.4,35.5,98,88,68,30.15,29.65,14,8,0,0.02
2013-12-14,49.6,37.9,28.8,36.5,29.8,25.9,91,74,42,30.28,29.77,24,10,0,0.43
2013-12-15,61.9,42.2,24.6,38.1,31.5,23.6,97,70,36,30.27,30.10,10,2,0,0.00
2013-12-16,69.1,45.3,27.3,40.9,34.0,26.1,98,69,31,30.16,30.06,5,0,0,0.00
2013-12-17,68.0,47.8,30.6,40.3,34.7,28.8,93,64,34,30.28,30.14,10,3,0,0.00
2013-12-18,69.6,50.0,31.6,47.6,39.0,30.1,94,69,38,30.22,29.79,16,5,0,0.00
2013-12-19,70.3,58.5,49.1,53.8,51.1,46.9,98,78,50,29.79,29.56,19,9,0,0.02
2013-12-20,54.7,34.2,29.5,52.1,29.6,20.4,98,84,66,29.97,29.63,21,8,0,0.87
2013-12-21,33.3,31.3,28.4,32.8,30.8,27.9,98,98,97,29.80,29.53,4,0,0,0.00
2013-12-22,37.0,29.4,25.2,31.6,27.3,24.4,98,92,77,30.32,29.80,0,0,0,0.07
2013-12-23,42.4,30.1,22.8,34.7,28.3,22.3,98,93,72,30.51,30.30,10,2,0,0.69
2013-12-24,47.7,32.8,23.9,43.2,31.6,23.4,98,95,82,30.54,30.05,13,6,0,0.21
2013-12-25,50.4,37.4,29.5,40.4,34.4,29.0,98,90,66,30.40,30.15,14,6,0,0.00
2013-12-26,56.7,37.9,23.0,39.6,30.9,22.5,98,79,37,30.39,30.23,7,1,0,0.00
2013-12-27,59.9,42.0,26.4,41.5,32.7,25.9,98,73,38,30.36,30.23,10,1,0,0.00
2013-12-28,58.6,42.4,27.9,50.2,38.7,27.4,98,88,57,30.23,29.85,12,3,0,0.00
2013-12-29,43.2,30.6,21.0,42.6,26.8,18.1,98,86,72,30.29,29.84,29,12,0,19.78
2013-12-30,48.2,29.4,15.8,30.8,23.2,15.3,98,80,50,30.35,30.19,7,0,0,0.00
2013-12-31,56.3,38.6,21.7,38.5,31.5,21.3,98,78,48,30.35,30.01,13,4,0,0.00
2014-1-1,57.0,37.6,25.0,42.1,33.2,22.5,98,85,56,30.32,29.82,21,10,0,3.46
2014-1-2,44.4,29.9,17.6,31.0,24.2,17.1,98,81,59,30.49,30.32,14,4,0,0.00